#datetime,building,power
2022-09-05T00:00:00,pst,14.09
2022-09-05T00:01:00,pst,14.27
2022-09-05T00:02:00,pst,14.42
2022-09-05T00:03:00,pst,14.41
2022-09-05T00:04:00,pst,14.42
2022-09-05T00:05:00,pst,14.42
2022-09-05T00:06:00,pst,14.40
2022-09-05T00:07:00,pst,14.41
2022-09-05T00:08:00,pst,14.41
2022-09-05T00:09:00,pst,14.42
2022-09-05T00:10:00,pst,14.38
2022-09-05T00:11:00,pst,14.38
2022-09-05T00:12:00,pst,14.38
2022-09-05T00:13:00,pst,14.39
2022-09-05T00:14:00,pst,14.27
2022-09-05T00:15:00,pst,14.11
2022-09-05T00:16:00,pst,14.12
2022-09-05T00:17:00,pst,14.11
2022-09-05T00:18:00,pst,14.11
2022-09-05T00:19:00,pst,14.10
2022-09-05T00:20:00,pst,14.10
2022-09-05T00:21:00,pst,14.07
2022-09-05T00:22:00,pst,14.06
2022-09-05T00:23:00,pst,14.10
2022-09-05T00:24:00,pst,14.06
2022-09-05T00:25:00,pst,13.72
2022-09-05T00:26:00,pst,13.72
2022-09-05T00:27:00,pst,13.73
2022-09-05T00:28:00,pst,13.72
2022-09-05T00:29:00,pst,13.79
2022-09-05T00:30:00,pst,13.80
2022-09-05T00:31:00,pst,13.95
2022-09-05T00:32:00,pst,13.93
2022-09-05T00:33:00,pst,13.91
2022-09-05T00:34:00,pst,13.92
2022-09-05T00:35:00,pst,13.91
2022-09-05T00:36:00,pst,13.91
2022-09-05T00:37:00,pst,13.90
2022-09-05T00:38:00,pst,13.89
2022-09-05T00:39:00,pst,13.91
2022-09-05T00:40:00,pst,13.90
2022-09-05T00:41:00,pst,13.90
2022-09-05T00:42:00,pst,13.92
2022-09-05T00:43:00,pst,13.95
2022-09-05T00:44:00,pst,13.94
2022-09-05T00:45:00,pst,13.92
2022-09-05T00:46:00,pst,13.74
2022-09-05T00:47:00,pst,13.76
2022-09-05T00:48:00,pst,13.76
2022-09-05T00:49:00,pst,13.74
2022-09-05T00:50:00,pst,13.74
2022-09-05T00:51:00,pst,22.57
2022-09-05T00:52:00,pst,22.42
2022-09-05T00:53:00,pst,22.30
2022-09-05T00:54:00,pst,13.80
2022-09-05T00:55:00,pst,13.95
2022-09-05T00:56:00,pst,13.92
2022-09-05T00:57:00,pst,13.91
2022-09-05T00:58:00,pst,13.90
2022-09-05T00:59:00,pst,13.91
2022-09-05T01:00:00,pst,13.89
2022-09-05T01:01:00,pst,13.89
2022-09-05T01:02:00,pst,14.04
2022-09-05T01:03:00,pst,14.01
2022-09-05T01:04:00,pst,14.06
2022-09-05T01:05:00,pst,14.08
2022-09-05T01:06:00,pst,13.97
2022-09-05T01:07:00,pst,13.96
2022-09-05T01:08:00,pst,13.97
2022-09-05T01:09:00,pst,13.96
2022-09-05T01:10:00,pst,13.97
2022-09-05T01:11:00,pst,13.95
2022-09-05T01:12:00,pst,13.95
2022-09-05T01:13:00,pst,13.97
2022-09-05T01:14:00,pst,14.01
2022-09-05T01:15:00,pst,14.07
2022-09-05T01:16:00,pst,13.90
2022-09-05T01:17:00,pst,13.91
2022-09-05T01:18:00,pst,13.91
2022-09-05T01:19:00,pst,13.91
2022-09-05T01:20:00,pst,13.91
2022-09-05T01:21:00,pst,13.89
2022-09-05T01:22:00,pst,13.88
2022-09-05T01:23:00,pst,13.83
2022-09-05T01:24:00,pst,14.13
2022-09-05T01:25:00,pst,14.13
2022-09-05T01:26:00,pst,14.15
2022-09-05T01:27:00,pst,14.16
2022-09-05T01:28:00,pst,14.16
2022-09-05T01:29:00,pst,14.16
2022-09-05T01:30:00,pst,14.17
2022-09-05T01:31:00,pst,14.18
2022-09-05T01:32:00,pst,14.14
2022-09-05T01:33:00,pst,14.31
2022-09-05T01:34:00,pst,14.29
2022-09-05T01:35:00,pst,14.29
2022-09-05T01:36:00,pst,14.28
2022-09-05T01:37:00,pst,14.28
2022-09-05T01:38:00,pst,14.29
2022-09-05T01:39:00,pst,14.27
2022-09-05T01:40:00,pst,14.28
2022-09-05T01:41:00,pst,14.28
2022-09-05T01:42:00,pst,14.26
2022-09-05T01:43:00,pst,14.26
2022-09-05T01:44:00,pst,14.22
2022-09-05T01:45:00,pst,14.19
2022-09-05T01:46:00,pst,14.18
2022-09-05T01:47:00,pst,13.99
2022-09-05T01:48:00,pst,13.97
2022-09-05T01:49:00,pst,14.12
2022-09-05T01:50:00,pst,14.10
2022-09-05T01:51:00,pst,13.80
2022-09-05T01:52:00,pst,13.86
2022-09-05T01:53:00,pst,13.85
2022-09-05T01:54:00,pst,13.84
2022-09-05T01:55:00,pst,13.84
2022-09-05T01:56:00,pst,13.84
2022-09-05T01:57:00,pst,13.84
2022-09-05T01:58:00,pst,13.86
2022-09-05T01:59:00,pst,13.84
2022-09-05T02:00:00,pst,13.72
2022-09-05T02:01:00,pst,13.71
2022-09-05T02:02:00,pst,13.69
2022-09-05T02:03:00,pst,13.79
2022-09-05T02:04:00,pst,13.96
2022-09-05T02:05:00,pst,14.02
2022-09-05T02:06:00,pst,14.02
2022-09-05T02:07:00,pst,14.00
2022-09-05T02:08:00,pst,14.00
2022-09-05T02:09:00,pst,14.00
2022-09-05T02:10:00,pst,14.00
2022-09-05T02:11:00,pst,13.97
2022-09-05T02:12:00,pst,13.93
2022-09-05T02:13:00,pst,13.93
2022-09-05T02:14:00,pst,13.89
2022-09-05T02:15:00,pst,13.89
2022-09-05T02:16:00,pst,13.89
2022-09-05T02:17:00,pst,13.85
2022-09-05T02:18:00,pst,13.69
2022-09-05T02:19:00,pst,13.71
2022-09-05T02:20:00,pst,13.71
2022-09-05T02:21:00,pst,13.69
2022-09-05T02:22:00,pst,13.69
2022-09-05T02:23:00,pst,13.65
2022-09-05T02:24:00,pst,13.66
2022-09-05T02:25:00,pst,13.65
2022-09-05T02:26:00,pst,13.66
2022-09-05T02:27:00,pst,13.65
2022-09-05T02:28:00,pst,13.65
2022-09-05T02:29:00,pst,13.65
2022-09-05T02:30:00,pst,13.66
2022-09-05T02:31:00,pst,13.65
2022-09-05T02:32:00,pst,13.66
2022-09-05T02:33:00,pst,13.64
2022-09-05T02:34:00,pst,13.65
2022-09-05T02:35:00,pst,13.66
2022-09-05T02:36:00,pst,13.82
2022-09-05T02:37:00,pst,13.81
2022-09-05T02:38:00,pst,13.80
2022-09-05T02:39:00,pst,13.82
2022-09-05T02:40:00,pst,13.81
2022-09-05T02:41:00,pst,13.87
2022-09-05T02:42:00,pst,13.87
2022-09-05T02:43:00,pst,14.00
2022-09-05T02:44:00,pst,14.01
2022-09-05T02:45:00,pst,13.99
2022-09-05T02:46:00,pst,14.05
2022-09-05T02:47:00,pst,14.04
2022-09-05T02:48:00,pst,14.02
2022-09-05T02:49:00,pst,13.88
2022-09-05T02:50:00,pst,13.88
2022-09-05T02:51:00,pst,13.85
2022-09-05T02:52:00,pst,13.84
2022-09-05T02:53:00,pst,13.84
2022-09-05T02:54:00,pst,13.72
2022-09-05T02:55:00,pst,13.72
2022-09-05T02:56:00,pst,13.78
2022-09-05T02:57:00,pst,13.78
2022-09-05T02:58:00,pst,13.75
2022-09-05T02:59:00,pst,13.75
2022-09-05T03:00:00,pst,13.75
2022-09-05T03:01:00,pst,13.75
2022-09-05T03:02:00,pst,13.73
2022-09-05T03:03:00,pst,13.73
2022-09-05T03:04:00,pst,13.73
2022-09-05T03:05:00,pst,13.74
2022-09-05T03:06:00,pst,14.00
2022-09-05T03:07:00,pst,14.20
2022-09-05T03:08:00,pst,14.18
2022-09-05T03:09:00,pst,14.20
2022-09-05T03:10:00,pst,14.68
2022-09-05T03:11:00,pst,15.29
2022-09-05T03:12:00,pst,15.31
2022-09-05T03:13:00,pst,15.33
2022-09-05T03:14:00,pst,15.34
2022-09-05T03:15:00,pst,15.30
2022-09-05T03:16:00,pst,15.29
2022-09-05T03:17:00,pst,15.29
2022-09-05T03:18:00,pst,15.29
2022-09-05T03:19:00,pst,15.28
2022-09-05T03:20:00,pst,14.46
2022-09-05T03:21:00,pst,14.44
2022-09-05T03:22:00,pst,14.44
2022-09-05T03:23:00,pst,14.44
2022-09-05T03:24:00,pst,14.43
2022-09-05T03:25:00,pst,14.45
2022-09-05T03:26:00,pst,14.44
2022-09-05T03:27:00,pst,14.11
2022-09-05T03:28:00,pst,14.11
2022-09-05T03:29:00,pst,14.10
2022-09-05T03:30:00,pst,14.11
2022-09-05T03:31:00,pst,13.92
2022-09-05T03:32:00,pst,13.91
2022-09-05T03:33:00,pst,13.90
2022-09-05T03:34:00,pst,13.90
2022-09-05T03:35:00,pst,13.90
2022-09-05T03:36:00,pst,13.61
2022-09-05T03:37:00,pst,13.76
2022-09-05T03:38:00,pst,13.92
2022-09-05T03:39:00,pst,13.90
2022-09-05T03:40:00,pst,13.93
2022-09-05T03:41:00,pst,13.94
2022-09-05T03:42:00,pst,13.92
2022-09-05T03:43:00,pst,13.92
2022-09-05T03:44:00,pst,13.93
2022-09-05T03:45:00,pst,13.92
2022-09-05T03:46:00,pst,13.92
2022-09-05T03:47:00,pst,13.93
2022-09-05T03:48:00,pst,13.86
2022-09-05T03:49:00,pst,13.85
2022-09-05T03:50:00,pst,13.85
2022-09-05T03:51:00,pst,13.70
2022-09-05T03:52:00,pst,13.70
2022-09-05T03:53:00,pst,13.69
2022-09-05T03:54:00,pst,13.70
2022-09-05T03:55:00,pst,13.70
2022-09-05T03:56:00,pst,13.69
2022-09-05T03:57:00,pst,13.69
2022-09-05T03:58:00,pst,13.69
2022-09-05T03:59:00,pst,13.66
2022-09-05T04:00:00,pst,13.65
2022-09-05T04:01:00,pst,13.65
2022-09-05T04:02:00,pst,13.65
2022-09-05T04:03:00,pst,13.65
2022-09-05T04:04:00,pst,13.66
2022-09-05T04:05:00,pst,13.65
2022-09-05T04:06:00,pst,13.65
2022-09-05T04:07:00,pst,13.67
2022-09-05T04:08:00,pst,13.66
2022-09-05T04:09:00,pst,13.84
2022-09-05T04:10:00,pst,13.82
2022-09-05T04:11:00,pst,13.81
2022-09-05T04:12:00,pst,13.81
2022-09-05T04:13:00,pst,13.82
2022-09-05T04:14:00,pst,13.81
2022-09-05T04:15:00,pst,13.80
2022-09-05T04:16:00,pst,13.80
2022-09-05T04:17:00,pst,13.79
2022-09-05T04:18:00,pst,13.79
2022-09-05T04:19:00,pst,13.79
2022-09-05T04:20:00,pst,13.79
2022-09-05T04:21:00,pst,22.57
2022-09-05T04:22:00,pst,22.43
2022-09-05T04:23:00,pst,22.17
2022-09-05T04:24:00,pst,13.62
2022-09-05T04:25:00,pst,13.64
2022-09-05T04:26:00,pst,13.64
2022-09-05T04:27:00,pst,13.69
2022-09-05T04:28:00,pst,13.67
2022-09-05T04:29:00,pst,13.69
2022-09-05T04:30:00,pst,13.68
2022-09-05T04:31:00,pst,13.82
2022-09-05T04:32:00,pst,13.82
2022-09-05T04:33:00,pst,13.82
2022-09-05T04:34:00,pst,13.81
2022-09-05T04:35:00,pst,13.81
2022-09-05T04:36:00,pst,13.76
2022-09-05T04:37:00,pst,13.76
2022-09-05T04:38:00,pst,13.75
2022-09-05T04:39:00,pst,13.76
2022-09-05T04:40:00,pst,13.83
2022-09-05T04:41:00,pst,13.99
2022-09-05T04:42:00,pst,13.98
2022-09-05T04:43:00,pst,13.85
2022-09-05T04:44:00,pst,13.85
2022-09-05T04:45:00,pst,14.11
2022-09-05T04:46:00,pst,14.11
2022-09-05T04:47:00,pst,14.13
2022-09-05T04:48:00,pst,14.11
2022-09-05T04:49:00,pst,14.11
2022-09-05T04:50:00,pst,14.11
2022-09-05T04:51:00,pst,14.10
2022-09-05T04:52:00,pst,14.11
2022-09-05T04:53:00,pst,14.11
2022-09-05T04:54:00,pst,13.97
2022-09-05T04:55:00,pst,13.96
2022-09-05T04:56:00,pst,13.97
2022-09-05T04:57:00,pst,13.97
2022-09-05T04:58:00,pst,13.91
2022-09-05T04:59:00,pst,13.91
2022-09-05T05:00:00,pst,13.91
2022-09-05T05:01:00,pst,13.88
2022-09-05T05:02:00,pst,13.89
2022-09-05T05:03:00,pst,13.88
2022-09-05T05:04:00,pst,13.87
2022-09-05T05:05:00,pst,13.88
2022-09-05T05:06:00,pst,13.88
2022-09-05T05:07:00,pst,13.88
2022-09-05T05:08:00,pst,13.92
2022-09-05T05:09:00,pst,13.88
2022-09-05T05:10:00,pst,13.89
2022-09-05T05:11:00,pst,13.87
2022-09-05T05:12:00,pst,14.04
2022-09-05T05:13:00,pst,13.73
2022-09-05T05:14:00,pst,13.74
2022-09-05T05:15:00,pst,13.76
2022-09-05T05:16:00,pst,13.74
2022-09-05T05:17:00,pst,13.75
2022-09-05T05:18:00,pst,13.79
2022-09-05T05:19:00,pst,13.80
2022-09-05T05:20:00,pst,13.78
2022-09-05T05:21:00,pst,13.78
2022-09-05T05:22:00,pst,13.79
2022-09-05T05:23:00,pst,13.78
2022-09-05T05:24:00,pst,13.80
2022-09-05T05:25:00,pst,13.63
2022-09-05T05:26:00,pst,13.77
2022-09-05T05:27:00,pst,13.78
2022-09-05T05:28:00,pst,13.77
2022-09-05T05:29:00,pst,13.77
2022-09-05T05:30:00,pst,13.77
2022-09-05T05:31:00,pst,13.75
2022-09-05T05:32:00,pst,13.82
2022-09-05T05:33:00,pst,13.88
2022-09-05T05:34:00,pst,13.87
2022-09-05T05:35:00,pst,13.86
2022-09-05T05:36:00,pst,13.86
2022-09-05T05:37:00,pst,13.70
2022-09-05T05:38:00,pst,13.69
2022-09-05T05:39:00,pst,13.68
2022-09-05T05:40:00,pst,13.69
2022-09-05T05:41:00,pst,13.68
2022-09-05T05:42:00,pst,13.68
2022-09-05T05:43:00,pst,13.86
2022-09-05T05:44:00,pst,13.84
2022-09-05T05:45:00,pst,13.84
2022-09-05T05:46:00,pst,13.81
2022-09-05T05:47:00,pst,13.82
2022-09-05T05:48:00,pst,13.81
2022-09-05T05:49:00,pst,13.81
2022-09-05T05:50:00,pst,13.80
2022-09-05T05:51:00,pst,13.75
2022-09-05T05:52:00,pst,13.77
2022-09-05T05:53:00,pst,13.76
2022-09-05T05:54:00,pst,13.77
2022-09-05T05:55:00,pst,13.76
2022-09-05T05:56:00,pst,13.61
2022-09-05T05:57:00,pst,13.61
2022-09-05T05:58:00,pst,13.60
2022-09-05T05:59:00,pst,13.60
2022-09-05T06:00:00,pst,13.61
2022-09-05T06:01:00,pst,13.68
2022-09-05T06:02:00,pst,13.68
2022-09-05T06:03:00,pst,13.65
2022-09-05T06:04:00,pst,13.63
2022-09-05T06:05:00,pst,13.64
2022-09-05T06:06:00,pst,14.42
2022-09-05T06:07:00,pst,14.75
2022-09-05T06:08:00,pst,14.77
2022-09-05T06:09:00,pst,14.77
2022-09-05T06:10:00,pst,14.77
2022-09-05T06:11:00,pst,14.77
2022-09-05T06:12:00,pst,14.79
2022-09-05T06:13:00,pst,8.88
2022-09-05T06:14:00,pst,9.05
2022-09-05T06:15:00,pst,9.05
2022-09-05T06:16:00,pst,8.36
2022-09-05T06:17:00,pst,8.34
2022-09-05T06:18:00,pst,8.42
2022-09-05T06:19:00,pst,8.43
2022-09-05T06:20:00,pst,8.50
2022-09-05T06:21:00,pst,8.49
2022-09-05T06:22:00,pst,8.16
2022-09-05T06:23:00,pst,8.16
2022-09-05T06:24:00,pst,8.22
2022-09-05T06:25:00,pst,8.20
2022-09-05T06:26:00,pst,8.17
2022-09-05T06:27:00,pst,7.99
2022-09-05T06:28:00,pst,7.83
2022-09-05T06:29:00,pst,7.83
2022-09-05T06:30:00,pst,8.09
2022-09-05T06:31:00,pst,8.10
2022-09-05T06:32:00,pst,7.98
2022-09-05T06:33:00,pst,8.06
2022-09-05T06:34:00,pst,8.00
2022-09-05T06:35:00,pst,8.01
2022-09-05T06:36:00,pst,8.01
2022-09-05T06:37:00,pst,8.01
2022-09-05T06:38:00,pst,8.06
2022-09-05T06:39:00,pst,8.05
2022-09-05T06:40:00,pst,8.06
2022-09-05T06:41:00,pst,8.06
2022-09-05T06:42:00,pst,8.00
2022-09-05T06:43:00,pst,8.01
2022-09-05T06:44:00,pst,8.00
2022-09-05T06:45:00,pst,8.01
2022-09-05T06:46:00,pst,8.17
2022-09-05T06:47:00,pst,8.24
2022-09-05T06:48:00,pst,8.16
2022-09-05T06:49:00,pst,8.16
2022-09-05T06:50:00,pst,8.12
2022-09-05T06:51:00,pst,8.12
2022-09-05T06:52:00,pst,8.12
2022-09-05T06:53:00,pst,8.13
2022-09-05T06:54:00,pst,8.15
2022-09-05T06:55:00,pst,8.18
2022-09-05T06:56:00,pst,8.19
2022-09-05T06:57:00,pst,8.17
2022-09-05T06:58:00,pst,8.17
2022-09-05T06:59:00,pst,7.78
2022-09-05T07:00:00,pst,7.77
2022-09-05T07:01:00,pst,7.77
2022-09-05T07:02:00,pst,7.77
2022-09-05T07:03:00,pst,7.83
2022-09-05T07:04:00,pst,7.76
2022-09-05T07:05:00,pst,7.76
2022-09-05T09:06:00,pst,8.00
2022-09-05T09:07:00,pst,7.99
2022-09-05T09:08:00,pst,7.99
2022-09-05T09:09:00,pst,7.84
2022-09-05T09:10:00,pst,7.83
2022-09-05T09:11:00,pst,7.93
2022-09-05T09:12:00,pst,7.90
2022-09-05T09:13:00,pst,7.90
2022-09-05T09:14:00,pst,7.90
2022-09-05T09:15:00,pst,7.92
2022-09-05T09:16:00,pst,7.91
2022-09-05T09:17:00,pst,7.74
2022-09-05T09:18:00,pst,7.75
2022-09-05T09:19:00,pst,7.74
2022-09-05T09:20:00,pst,7.75
2022-09-05T09:21:00,pst,7.80
2022-09-05T09:22:00,pst,7.78
2022-09-05T09:23:00,pst,7.80
2022-09-05T09:24:00,pst,7.87
2022-09-05T09:25:00,pst,8.29
2022-09-05T09:26:00,pst,8.92
2022-09-05T09:27:00,pst,9.11
2022-09-05T09:28:00,pst,9.12
2022-09-05T09:29:00,pst,9.11
2022-09-05T09:30:00,pst,9.11
2022-09-05T09:31:00,pst,9.09
2022-09-05T09:32:00,pst,9.11
2022-09-05T09:33:00,pst,8.38
2022-09-05T09:34:00,pst,8.38
2022-09-05T09:35:00,pst,8.38
2022-09-05T09:36:00,pst,8.72
2022-09-05T09:37:00,pst,8.32
2022-09-05T09:38:00,pst,8.34
2022-09-05T09:39:00,pst,8.36
2022-09-05T09:40:00,pst,8.31
2022-09-05T09:41:00,pst,8.18
2022-09-05T09:42:00,pst,7.99
2022-09-05T09:43:00,pst,7.99
2022-09-05T09:44:00,pst,8.00
2022-09-05T09:45:00,pst,7.99
2022-09-05T09:46:00,pst,8.01
2022-09-05T09:47:00,pst,8.06
2022-09-05T09:48:00,pst,8.03
2022-09-05T09:49:00,pst,8.09
2022-09-05T09:50:00,pst,8.11
2022-09-05T09:51:00,pst,8.04
2022-09-05T09:52:00,pst,8.04
2022-09-05T09:53:00,pst,8.04
2022-09-05T09:54:00,pst,8.03
2022-09-05T09:55:00,pst,8.02
2022-09-05T09:56:00,pst,8.07
2022-09-05T09:57:00,pst,8.08
2022-09-05T09:58:00,pst,8.07
2022-09-05T09:59:00,pst,8.05
2022-09-05T10:00:00,pst,8.70
2022-09-05T10:01:00,pst,8.06
2022-09-05T10:02:00,pst,8.04
2022-09-05T10:03:00,pst,8.11
2022-09-05T10:04:00,pst,8.11
2022-09-05T10:05:00,pst,7.99
2022-09-05T10:06:00,pst,7.98
2022-09-05T10:07:00,pst,7.98
2022-09-05T10:08:00,pst,7.96
2022-09-05T10:09:00,pst,7.95
2022-09-05T10:10:00,pst,7.96
2022-09-05T10:11:00,pst,7.96
2022-09-05T10:12:00,pst,7.84
2022-09-05T10:13:00,pst,7.84
2022-09-05T10:14:00,pst,7.69
2022-09-05T10:15:00,pst,7.70
2022-09-05T10:16:00,pst,7.68
2022-09-05T10:17:00,pst,7.76
2022-09-05T10:18:00,pst,8.03
2022-09-05T10:19:00,pst,7.93
2022-09-05T10:20:00,pst,7.94
2022-09-05T10:21:00,pst,7.99
2022-09-05T10:22:00,pst,7.99
2022-09-05T10:23:00,pst,7.93
2022-09-05T10:24:00,pst,7.94
2022-09-05T10:25:00,pst,7.93
2022-09-05T10:26:00,pst,7.88
2022-09-05T10:27:00,pst,7.68
2022-09-05T10:28:00,pst,7.69
2022-09-05T10:29:00,pst,7.68
2022-09-05T10:30:00,pst,7.75
2022-09-05T10:31:00,pst,7.76
2022-09-05T10:32:00,pst,7.68
2022-09-05T10:33:00,pst,7.86
2022-09-05T10:34:00,pst,7.84
2022-09-05T10:35:00,pst,7.84
2022-09-05T10:36:00,pst,7.90
2022-09-05T10:37:00,pst,7.98
2022-09-05T10:38:00,pst,7.96
2022-09-05T10:39:00,pst,7.93
2022-09-05T10:40:00,pst,7.92
2022-09-05T10:41:00,pst,7.92
2022-09-05T10:42:00,pst,7.92
2022-09-05T10:43:00,pst,8.01
2022-09-05T10:44:00,pst,8.01
2022-09-05T10:45:00,pst,8.17
2022-09-05T10:46:00,pst,8.19
2022-09-05T10:47:00,pst,8.06
2022-09-05T10:48:00,pst,8.07
2022-09-05T10:49:00,pst,16.84
2022-09-05T10:50:00,pst,16.73
2022-09-05T10:51:00,pst,16.56
2022-09-05T10:52:00,pst,16.46
2022-09-05T10:53:00,pst,8.08
2022-09-05T10:54:00,pst,8.08
2022-09-05T10:55:00,pst,8.09
2022-09-05T10:56:00,pst,8.26
2022-09-05T10:57:00,pst,8.21
2022-09-05T10:58:00,pst,8.08
2022-09-05T10:59:00,pst,8.07
2022-09-05T11:00:00,pst,8.07
2022-09-05T11:01:00,pst,8.07
2022-09-05T11:02:00,pst,8.07
2022-09-05T11:03:00,pst,8.07
2022-09-05T11:04:00,pst,8.33
2022-09-05T11:05:00,pst,8.49
2022-09-05T11:06:00,pst,8.17
2022-09-05T11:07:00,pst,8.16
2022-09-05T11:08:00,pst,8.16
2022-09-05T11:09:00,pst,8.28
2022-09-05T11:10:00,pst,8.19
2022-09-05T11:11:00,pst,8.19
2022-09-05T11:12:00,pst,8.20
2022-09-05T11:13:00,pst,7.81
2022-09-05T11:14:00,pst,7.81
2022-09-05T11:15:00,pst,7.81
2022-09-05T11:16:00,pst,7.81
2022-09-05T11:17:00,pst,7.82
2022-09-05T11:18:00,pst,7.81
2022-09-05T11:19:00,pst,7.66
2022-09-05T11:20:00,pst,7.68
2022-09-05T11:21:00,pst,7.73
2022-09-05T11:22:00,pst,7.80
2022-09-05T11:23:00,pst,8.24
2022-09-05T11:24:00,pst,8.80
2022-09-05T11:25:00,pst,8.83
2022-09-05T11:26:00,pst,8.83
2022-09-05T11:27:00,pst,8.86
2022-09-05T11:28:00,pst,8.86
2022-09-05T11:29:00,pst,8.84
2022-09-05T11:30:00,pst,8.85
2022-09-05T11:31:00,pst,8.24
2022-09-05T11:32:00,pst,8.24
2022-09-05T11:33:00,pst,8.24
2022-09-05T11:34:00,pst,8.48
2022-09-05T11:35:00,pst,8.16
2022-09-05T11:36:00,pst,8.07
2022-09-05T11:37:00,pst,8.06
2022-09-05T11:38:00,pst,8.23
2022-09-05T11:39:00,pst,8.21
2022-09-05T11:40:00,pst,8.31
2022-09-05T11:41:00,pst,8.32
2022-09-05T11:42:00,pst,8.31
2022-09-05T11:43:00,pst,8.32
2022-09-05T11:44:00,pst,8.33
2022-09-05T11:45:00,pst,8.34
2022-09-05T11:46:00,pst,8.29
2022-09-05T11:47:00,pst,8.28
2022-09-05T11:48:00,pst,8.36
2022-09-05T11:49:00,pst,8.24
2022-09-05T11:50:00,pst,8.23
2022-09-05T11:51:00,pst,8.17
2022-09-05T11:52:00,pst,8.03
2022-09-05T11:53:00,pst,7.88
2022-09-05T11:54:00,pst,7.89
2022-09-05T11:55:00,pst,7.89
2022-09-05T11:56:00,pst,7.89
2022-09-05T11:57:00,pst,7.89
2022-09-05T11:58:00,pst,7.95
2022-09-05T11:59:00,pst,7.92
2022-09-05T12:00:00,pst,7.63
2022-09-05T12:01:00,pst,7.71
2022-09-05T12:02:00,pst,7.79
2022-09-05T12:03:00,pst,7.70
2022-09-05T12:04:00,pst,7.70
2022-09-05T12:05:00,pst,7.70
2022-09-05T12:06:00,pst,7.70
2022-09-05T12:07:00,pst,7.71
2022-09-05T12:08:00,pst,7.71
2022-09-05T12:09:00,pst,7.70
2022-09-05T12:10:00,pst,7.88
2022-09-05T12:11:00,pst,7.86
2022-09-05T12:12:00,pst,7.86
2022-09-05T12:13:00,pst,7.86
2022-09-05T12:14:00,pst,7.83
2022-09-05T12:15:00,pst,7.91
2022-09-05T12:16:00,pst,7.82
2022-09-05T12:17:00,pst,7.88
2022-09-05T12:18:00,pst,7.87
2022-09-05T12:19:00,pst,7.88
2022-09-05T12:20:00,pst,7.87
2022-09-05T12:21:00,pst,7.87
2022-09-05T12:22:00,pst,7.87
2022-09-05T12:23:00,pst,7.82
2022-09-05T12:24:00,pst,7.70
2022-09-05T12:25:00,pst,7.69
2022-09-05T12:26:00,pst,7.69
2022-09-05T12:27:00,pst,7.70
2022-09-05T12:28:00,pst,7.77
2022-09-05T12:29:00,pst,7.75
2022-09-05T12:30:00,pst,7.95
2022-09-05T12:31:00,pst,7.96
2022-09-05T12:32:00,pst,7.97
2022-09-05T12:33:00,pst,8.13
2022-09-05T12:34:00,pst,8.13
2022-09-05T12:35:00,pst,8.14
2022-09-05T12:36:00,pst,8.13
2022-09-05T12:37:00,pst,8.08
2022-09-05T12:38:00,pst,8.08
2022-09-05T12:39:00,pst,8.08
2022-09-05T12:40:00,pst,8.07
2022-09-05T12:41:00,pst,8.17
2022-09-05T12:42:00,pst,8.13
2022-09-05T12:43:00,pst,8.18
2022-09-05T12:44:00,pst,8.17
2022-09-05T12:45:00,pst,8.09
2022-09-05T12:46:00,pst,8.08
2022-09-05T12:47:00,pst,8.09
2022-09-05T12:48:00,pst,7.83
2022-09-05T12:49:00,pst,7.82
2022-09-05T12:50:00,pst,7.82
2022-09-05T12:51:00,pst,7.81
2022-09-05T12:52:00,pst,7.83
2022-09-05T12:53:00,pst,7.81
2022-09-05T12:54:00,pst,7.88
2022-09-05T12:55:00,pst,7.82
2022-09-05T12:56:00,pst,7.81
2022-09-05T12:57:00,pst,7.66
2022-09-05T12:58:00,pst,7.66
2022-09-05T12:59:00,pst,7.66
2022-09-05T13:00:00,pst,7.65
2022-09-05T13:01:00,pst,7.66
2022-09-05T13:02:00,pst,7.63
2022-09-05T13:03:00,pst,7.62
2022-09-05T13:04:00,pst,7.62
2022-09-05T13:05:00,pst,7.62
2022-09-05T13:06:00,pst,7.62
2022-09-05T13:07:00,pst,7.69
2022-09-05T13:08:00,pst,7.77
2022-09-05T13:09:00,pst,19.74
2022-09-05T13:10:00,pst,7.68
2022-09-05T13:11:00,pst,7.67
2022-09-05T13:12:00,pst,7.67
2022-09-05T13:13:00,pst,7.66
2022-09-05T13:14:00,pst,7.67
2022-09-05T13:15:00,pst,7.83
2022-09-05T13:16:00,pst,7.76
2022-09-05T13:17:00,pst,7.76
2022-09-05T13:18:00,pst,7.76
2022-09-05T13:19:00,pst,7.76
2022-09-05T13:20:00,pst,7.83
2022-09-05T13:21:00,pst,7.84
2022-09-05T13:22:00,pst,8.89
2022-09-05T13:23:00,pst,8.93
2022-09-05T13:24:00,pst,9.21
2022-09-05T13:25:00,pst,9.21
2022-09-05T13:26:00,pst,9.36
2022-09-05T13:27:00,pst,9.30
2022-09-05T13:28:00,pst,9.33
2022-09-05T13:29:00,pst,17.88
2022-09-05T13:30:00,pst,17.08
2022-09-05T13:31:00,pst,17.06
2022-09-05T13:32:00,pst,17.00
2022-09-05T13:33:00,pst,8.42
2022-09-05T13:34:00,pst,8.33
2022-09-05T13:35:00,pst,8.32
2022-09-05T13:36:00,pst,8.30
2022-09-05T13:37:00,pst,8.32
2022-09-05T13:38:00,pst,8.01
2022-09-05T13:39:00,pst,8.06
2022-09-05T13:40:00,pst,8.11
2022-09-05T13:41:00,pst,8.12
2022-09-05T13:42:00,pst,8.11
2022-09-05T13:43:00,pst,7.84
2022-09-05T13:44:00,pst,7.90
2022-09-05T13:45:00,pst,7.91
2022-09-05T13:46:00,pst,7.99
2022-09-05T13:47:00,pst,7.98
2022-09-05T13:48:00,pst,8.04
2022-09-05T13:49:00,pst,8.00
2022-09-05T13:50:00,pst,8.03
2022-09-05T13:51:00,pst,8.03
2022-09-05T13:52:00,pst,7.99
2022-09-05T13:53:00,pst,7.99
2022-09-05T13:54:00,pst,7.98
2022-09-05T13:55:00,pst,7.98
2022-09-05T13:56:00,pst,7.98
2022-09-05T13:57:00,pst,7.99
2022-09-05T13:58:00,pst,8.04
2022-09-05T13:59:00,pst,8.05
2022-09-05T14:00:00,pst,8.16
2022-09-05T14:01:00,pst,8.08
2022-09-05T14:02:00,pst,7.94
2022-09-05T14:03:00,pst,7.93
2022-09-05T14:04:00,pst,7.92
2022-09-05T14:05:00,pst,7.91
2022-09-05T14:06:00,pst,7.93
2022-09-05T14:07:00,pst,7.90
2022-09-05T14:08:00,pst,7.88
2022-09-05T14:09:00,pst,14.96
2022-09-05T14:10:00,pst,7.93
2022-09-05T14:11:00,pst,7.93
2022-09-05T14:12:00,pst,7.91
2022-09-05T14:13:00,pst,8.01
2022-09-05T14:14:00,pst,7.99
2022-09-05T14:15:00,pst,7.96
2022-09-05T14:16:00,pst,8.23
2022-09-05T14:17:00,pst,8.13
2022-09-05T14:18:00,pst,8.16
2022-09-05T14:19:00,pst,8.20
2022-09-05T14:20:00,pst,8.55
2022-09-05T14:21:00,pst,8.48
2022-09-05T14:22:00,pst,8.54
2022-09-05T14:23:00,pst,8.53
2022-09-05T14:24:00,pst,8.56
2022-09-05T14:25:00,pst,8.54
2022-09-05T14:26:00,pst,8.64
2022-09-05T14:27:00,pst,8.57
2022-09-05T14:28:00,pst,8.58
2022-09-05T14:29:00,pst,8.56
2022-09-05T14:30:00,pst,8.57
2022-09-05T14:31:00,pst,8.57
2022-09-05T14:32:00,pst,8.45
2022-09-05T14:33:00,pst,8.45
2022-09-05T14:34:00,pst,8.29
2022-09-05T14:35:00,pst,8.30
2022-09-05T14:36:00,pst,8.25
2022-09-05T14:37:00,pst,8.24
2022-09-05T14:38:00,pst,7.93
2022-09-05T14:39:00,pst,7.92
2022-09-05T14:40:00,pst,8.01
2022-09-05T14:41:00,pst,7.86
2022-09-05T14:42:00,pst,7.86
2022-09-05T14:43:00,pst,7.83
2022-09-05T14:44:00,pst,7.82
2022-09-05T14:45:00,pst,7.81
2022-09-05T14:46:00,pst,7.82
2022-09-05T14:47:00,pst,7.82
2022-09-05T14:48:00,pst,7.82
2022-09-05T14:49:00,pst,7.81
2022-09-05T14:50:00,pst,7.88
2022-09-05T14:51:00,pst,7.89
2022-09-05T14:52:00,pst,8.02
2022-09-05T14:53:00,pst,8.12
2022-09-05T14:54:00,pst,8.01
2022-09-05T14:55:00,pst,8.05
2022-09-05T14:56:00,pst,8.06
2022-09-05T14:57:00,pst,8.06
2022-09-05T14:58:00,pst,8.04
2022-09-05T14:59:00,pst,8.04
2022-09-05T15:00:00,pst,8.05
2022-09-05T15:01:00,pst,8.05
2022-09-05T15:02:00,pst,8.05
2022-09-05T15:03:00,pst,8.05
2022-09-05T15:04:00,pst,8.05
2022-09-05T15:05:00,pst,8.13
2022-09-05T15:06:00,pst,8.11
2022-09-05T15:07:00,pst,7.95
2022-09-05T15:08:00,pst,7.89
2022-09-05T15:09:00,pst,7.88
2022-09-05T15:10:00,pst,7.88
2022-09-05T15:11:00,pst,7.88
2022-09-05T15:12:00,pst,7.87
2022-09-05T15:13:00,pst,7.88
2022-09-05T15:14:00,pst,8.50
2022-09-05T15:15:00,pst,8.04
2022-09-05T15:16:00,pst,8.01
2022-09-05T15:17:00,pst,8.03
2022-09-05T15:18:00,pst,8.02
2022-09-05T15:19:00,pst,8.10
2022-09-05T15:20:00,pst,9.21
2022-09-05T15:21:00,pst,9.19
2022-09-05T15:22:00,pst,9.19
2022-09-05T15:23:00,pst,9.47
2022-09-05T15:24:00,pst,9.43
2022-09-05T15:25:00,pst,9.65
2022-09-05T15:26:00,pst,9.51
2022-09-05T15:27:00,pst,9.48
2022-09-05T15:28:00,pst,8.73
2022-09-05T15:29:00,pst,8.72
2022-09-05T15:30:00,pst,8.72
2022-09-05T15:31:00,pst,8.48
2022-09-05T15:32:00,pst,8.41